DW5082 Weather Reports


Display with metric or nautical units.
time (UTC)temp
F
wind
direction
speed
MPH
gust
MPH
rain 1hr
in
rain 24hr
in
rain mn
in
humidity
%
barometer
mb
20190324193704 58 201 5.0 13.0 0.00 0.00 0.00 21 1018.0
20190324193204 58 228 3.0 15.0 0.00 0.00 0.00 22 1018.1
20190324191704 57 209 5.0 13.0 0.00 0.00 0.00 22 1018.4
20190324191204 57 217 6.0 12.0 0.00 0.00 0.00 22 1018.4
20190324190703 57 175 5.0 12.0 0.00 0.00 0.00 22 1018.4
20190324190204 57 209 6.0 16.0 0.00 0.00 0.00 23 1018.6
20190324184704 57 219 6.0 15.0 0.00 0.00 0.00 22 1018.8
20190324184204 58 177 5.0 12.0 0.00 0.00 0.00 22 1018.8
20190324183704 58 204 3.0 9.0 0.00 0.00 0.00 22 1018.8
20190324183204 58 253 4.0 10.0 0.00 0.00 0.00 21 1018.9
20190324181704 57 223 4.0 10.0 0.00 0.00 0.00 22 1019.1
20190324181205 57 181 3.0 12.0 0.00 0.00 0.00 23 1019.2
20190324180704 57 176 3.0 7.0 0.00 0.00 0.00 22 1019.5
20190324180204 56 178 3.0 13.0 0.00 0.00 0.00 21 1019.6
20190324174704 55 229 4.0 12.0 0.00 0.00 0.00 22 1019.7
20190324174204 55 188 3.0 12.0 0.00 0.00 0.00 23 1020.0
20190324173704 55 228 5.0 13.0 0.00 0.00 0.00 23 1020.1
20190324173204 55 225 6.0 12.0 0.00 0.00 0.00 24 1020.3
20190324171704 54 253 3.0 10.0 0.00 0.00 0.00 25 1020.4
20190324171205 54 241 3.0 7.0 0.00 0.00 0.00 26 1020.5
20190324170704 53 207 6.0 12.0 0.00 0.00 0.00 25 1020.6
20190324170204 53 200 4.0 13.0 0.00 0.00 0.00 26 1020.7
20190324164704 53 277 3.0 9.0 0.00 0.00 0.00 26 1021.2
20190324164204 53 253 3.0 8.0 0.00 0.00 0.00 27 1021.3
20190324163704 52 244 4.0 9.0 0.00 0.00 0.00 27 1021.3
20190324163205 52 189 3.0 9.0 0.00 0.00 0.00 28 1021.3
20190324161704 51 186 3.0 8.0 0.00 0.00 0.00 28 1021.5
20190324161204 51 208 1.0 8.0 0.00 0.00 0.00 29 1021.6
20190324160703 50 251 1.0 5.0 0.00 0.00 0.00 29 1021.7
20190324160204 49 245 0.0 8.0 0.00 0.00 0.00 29 1021.8
20190324154704 49 210 3.0 7.0 0.00 0.00 0.00 30 1022.1
20190324154204 48 254 3.0 7.0 0.00 0.00 0.00 31 1022.3
20190324153704 48 322 3.0 7.0 0.00 0.00 0.00 31 1022.4
20190324153205 47 297 3.0 7.0 0.00 0.00 0.00 32 1022.4
20190324151704 48 236 3.0 9.0 0.00 0.00 0.00 32 1022.6
20190324151205 47 55 1.0 3.0 0.00 0.00 0.00 33 1022.7
20190324150705 47 309 2.0 6.0 0.00 0.00 0.00 33 1022.8
20190324150204 47 245 1.0 8.0 0.00 0.00 0.00 34 1022.8
20190324144704 45 311 3.0 7.0 0.00 0.00 0.00 36 1022.8
20190324144204 45 304 1.0 5.0 0.00 0.00 0.00 37 1022.9
20190324143704 44 203 2.0 6.0 0.00 0.00 0.00 37 1022.9
20190324143205 44 249 4.0 9.0 0.00 0.00 0.00 37 1022.9
20190324141704 43 259 3.0 8.0 0.00 0.00 0.00 39 1022.9
20190324141204 43 230 2.0 5.0 0.00 0.00 0.00 39 1023.0
20190324140703 42 210 2.0 3.0 0.00 0.00 0.00 41 1023.1
20190324140204 41 252 2.0 6.0 0.00 0.00 0.00 40 1023.1
20190324134704 40 267 2.0 6.0 0.00 0.00 0.00 42 1023.2
20190324134204 40 244 4.0 7.0 0.00 0.00 0.00 41 1023.3
20190324133704 40 262 1.0 7.0 0.00 0.00 0.00 43 1023.3
20190324133204 40 242 3.0 8.0 0.00 0.00 0.00 42 1023.3
20190324131704 39 238 5.0 9.0 0.00 0.00 0.00 44 1023.8
20190324131204 39 229 4.0 9.0 0.00 0.00 0.00 44 1023.7
20190324130704 39 257 2.0 8.0 0.00 0.00 0.00 46 1023.7
20190324130204 39 253 2.0 10.0 0.00 0.00 0.00 46 1023.6
20190324124705 37 230 5.0 16.0 0.00 0.00 0.00 46 1023.8
20190324124204 37 219 6.0 12.0 0.00 0.00 0.00 48 1023.9
20190324123705 36 234 3.0 9.0 0.00 0.00 0.00 49 1023.8
20190324123204 36 220 4.0 12.0 0.00 0.00 0.00 49 1023.7
20190324121705 35 249 3.0 12.0 0.00 0.00 0.00 50 1023.6
20190324121205 35 230 6.0 12.0 0.00 0.00 0.00 51 1023.6
20190324120704 34 229 3.0 7.0 0.00 0.00 0.00 52 1023.5
20190324120204 34 190 1.0 8.0 0.00 0.00 0.00 52 1023.5
20190324114704 34 232 4.0 8.0 0.00 0.00 0.00 54 1023.5
20190324114205 33 202 2.0 8.0 0.00 0.00 0.00 54 1023.3
20190324113704 33 241 1.0 5.0 0.00 0.00 0.00 55 1023.1
20190324113204 33 216 1.0 6.0 0.00 0.00 0.00 54 1023.2
20190324111704 33 214 1.0 3.0 0.00 0.00 0.00 54 1023.1
20190324111204 33 186 0.0 1.0 0.00 0.00 0.00 53 1023.1
20190324110704 33 238 1.0 5.0 0.00 0.00 0.00 53 1023.1
20190324110204 33 216 1.0 3.0 0.00 0.00 0.00 53 1023.1
20190324104705 33 172 0.0 1.0 0.00 0.00 0.00 52 1022.9
20190324104204 33 75 0.0 1.0 0.00 0.00 0.00 52 1022.8
20190324103704 33 44 0.0 0.0 0.00 0.00 0.00 51 1022.8
20190324103205 34 65 0.0 2.0 0.00 0.00 0.00 51 1022.7
20190324101703 33 90 0.0 2.0 0.00 0.00 0.00 51 1022.6
20190324101204 33 78 0.0 1.0 0.00 0.00 0.00 51 1022.6
20190324100705 33 227 1.0 3.0 0.00 0.00 0.00 51 1022.5
20190324100204 33 222 0.0 2.0 0.00 0.00 0.00 50 1022.6
20190324094704 34 228 1.0 5.0 0.00 0.00 0.00 50 1022.5
20190324094204 34 197 1.0 3.0 0.00 0.00 0.00 50 1022.5
20190324093704 34 196 1.0 7.0 0.00 0.00 0.00 50 1022.5
20190324093204 34 243 1.0 8.0 0.00 0.00 0.00 49 1022.5
20190324091704 34 277 2.0 7.0 0.00 0.00 0.00 49 1022.4
20190324091204 34 218 1.0 6.0 0.00 0.00 0.00 49 1022.6
20190324090704 34 142 1.0 3.0 0.00 0.00 0.00 49 1022.7
20190324090204 34 215 2.0 12.0 0.00 0.00 0.00 48 1022.6
20190324084704 34 217 2.0 7.0 0.00 0.00 0.00 49 1022.5
20190324084204 34 235 1.0 7.0 0.00 0.00 0.00 49 1022.4
20190324083704 34 306 1.0 3.0 0.00 0.00 0.00 49 1022.5
20190324083204 34 223 1.0 7.0 0.00 0.00 0.00 49 1022.4
20190324081705 35 161 0.0 2.0 0.00 0.00 0.00 48 1022.4
20190324081204 35 236 2.0 6.0 0.00 0.00 0.00 48 1022.4
20190324080704 35 274 2.0 8.0 0.00 0.00 0.00 48 1022.3
20190324080205 34 11 1.0 8.0 0.00 0.00 0.00 48 1022.4
20190324074704 34 354 1.0 2.0 0.00 0.00 0.00 49 1022.2
20190324074204 35 309 0.0 2.0 0.00 0.00 0.00 48 1022.2
20190324073704 35 356 1.0 10.0 0.00 0.00 0.00 48 1022.1
20190324073204 35 253 1.0 7.0 0.00 0.00 0.00 48 1022.1
20190324071704 35 259 1.0 5.0 0.00 0.00 0.00 48 1022.1
20190324071204 34 340 1.0 5.0 0.00 0.00 0.00 49 1022.1
20190324070704 35 187 0.0 7.0 0.00 0.00 0.00 48 1022.0
20190324070204 34 142 0.0 5.0 0.00 0.00 0.00 48 1022.1
20190324064704 35 213 1.0 7.0 0.00 0.00 0.00 48 1022.3
20190324064204 35 60 1.0 3.0 0.00 0.00 0.00 48 1022.2
20190324063705 35 131 0.0 2.0 0.00 0.00 0.00 47 1022.2
20190324063204 35 341 1.0 6.0 0.00 0.00 0.00 47 1022.2
20190324061704 35 262 1.0 3.0 0.00 0.00 0.00 48 1022.1
20190324061204 35 247 1.0 7.0 0.00 0.00 0.00 47 1022.1
20190324060704 35 272 1.0 5.0 0.00 0.00 0.00 47 1022.0
20190324060204 35 239 1.0 3.0 0.00 0.00 0.00 47 1021.9
20190324054704 35 246 1.0 3.0 0.00 0.00 0.00 46 1021.6
20190324054204 35 139 0.0 2.0 0.00 0.00 0.00 46 1021.5
20190324053704 35 332 2.0 6.0 0.00 0.00 0.00 46 1021.6
20190324053204 35 226 1.0 7.0 0.00 0.00 0.00 46 1021.6
20190324051704 35 124 1.0 3.0 0.00 0.00 0.00 46 1021.5
20190324051204 35 266 0.0 2.0 0.00 0.00 0.00 45 1021.5
20190324050704 35 348 1.0 6.0 0.00 0.00 0.00 45 1021.4
20190324050204 35 262 0.0 6.0 0.00 0.00 0.00 46 1021.3
20190324044704 36 145 0.0 2.0 0.00 0.00 0.00 46 1021.3
20190324044204 35 271 2.0 10.0 0.00 0.00 0.00 46 1021.2
20190324043705 36 191 1.0 5.0 0.00 0.00 0.00 46 1021.2
20190324043204 36 211 1.0 7.0 0.00 0.00 0.00 46 1021.3
20190324041704 36 349 0.0 2.0 0.00 0.00 0.00 45 1021.2
20190324041204 36 8 0.0 3.0 0.00 0.00 0.00 46 1021.2
20190324040705 36 231 2.0 5.0 0.00 0.00 0.00 45 1021.2
20190324040205 36 199 0.0 5.0 0.00 0.00 0.00 46 1021.2
20190324034705 36 8 1.0 5.0 0.00 0.00 0.00 46 1021.3
20190324034204 36 151 0.0 3.0 0.00 0.00 0.00 46 1021.3
20190324033704 36 77 0.0 0.0 0.00 0.00 0.00 46 1021.3
20190324033204 36 51 0.0 1.0 0.00 0.00 0.00 45 1021.3
20190324031704 37 232 0.0 6.0 0.00 0.00 0.00 44 1021.4
20190324031204 37 226 1.0 5.0 0.00 0.00 0.00 43 1021.3
20190324030704 37 286 2.0 7.0 0.00 0.00 0.00 43 1021.3
20190324030204 37 73 0.0 7.0 0.00 0.00 0.00 43 1021.2
20190324024704 37 283 2.0 7.0 0.00 0.00 0.00 42 1021.0
20190324024204 37 265 2.0 5.0 0.00 0.00 0.00 42 1021.0
20190324023704 37 27 1.0 5.0 0.00 0.00 0.00 42 1020.9
20190324023203 37 190 1.0 5.0 0.00 0.00 0.00 42 1020.9
20190324021704 37 99 1.0 6.0 0.00 0.00 0.00 41 1020.7
20190324021204 38 124 2.0 7.0 0.00 0.00 0.00 41 1020.6
20190324020704 38 272 3.0 7.0 0.00 0.00 0.00 39 1020.5
20190324020204 38 242 1.0 8.0 0.00 0.00 0.00 39 1020.4
20190324014704 38 33 3.0 12.0 0.00 0.00 0.00 38 1020.2
20190324014204 38 97 3.0 10.0 0.00 0.00 0.00 37 1020.2
20190324013704 38 116 2.0 5.0 0.00 0.00 0.00 38 1020.2
20190324013204 38 64 1.0 12.0 0.00 0.00 0.00 38 1020.2
20190324011704 38 328 3.0 12.0 0.00 0.00 0.00 38 1020.2
20190324011204 38 293 2.0 6.0 0.00 0.00 0.00 38 1020.0
20190324010704 38 58 2.0 12.0 0.00 0.00 0.00 37 1020.0
20190324010205 38 1 2.0 12.0 0.00 0.00 0.00 38 1019.9
20190324004704 38 53 1.0 5.0 0.00 0.00 0.00 38 1019.4
20190324004204 39 32 2.0 10.0 0.00 0.00 0.00 38 1019.3
20190324003704 39 4 2.0 7.0 0.00 0.00 0.00 38 1019.3
20190324003204 39 305 3.0 10.0 0.00 0.00 0.00 36 1019.1
20190324001704 39 247 2.0 12.0 0.00 0.00 0.00 35 1018.9
20190324001204 39 139 3.0 20.0 0.00 0.00 0.00 35 1018.8
20190324000704 39 167 2.0 8.0 0.00 0.00 0.00 36 1018.7
20190324000204 40 331 3.0 17.0 0.00 0.00 0.00 35 1018.4
20190323234704 40 154 5.0 15.0 0.00 0.00 0.00 36 1017.8
20190323234204 40 192 4.0 8.0 0.00 0.00 0.00 36 1017.8
20190323233704 40 293 3.0 12.0 0.00 0.00 0.00 36 1017.8
20190323233204 40 54 2.0 12.0 0.00 0.00 0.00 36 1017.8
20190323231704 41 324 3.0 9.0 0.00 0.00 0.00 36 1017.7
20190323231205 41 5 4.0 13.0 0.00 0.00 0.00 35 1017.5
20190323230704 41 48 2.0 7.0 0.00 0.00 0.00 36 1017.5
20190323230204 42 278 2.0 12.0 0.00 0.00 0.00 35 1017.5
20190323224703 43 247 5.0 17.0 0.00 0.00 0.00 36 1017.0
20190323224204 43 53 3.0 10.0 0.00 0.00 0.00 35 1016.9
20190323223704 43 202 5.0 13.0 0.00 0.00 0.00 33 1016.8
20190323223204 43 30 2.0 9.0 0.00 0.00 0.00 35 1016.7
20190323221704 43 185 3.0 12.0 0.00 0.00 0.00 35 1016.2
20190323221204 43 240 5.0 14.0 0.00 0.00 0.00 35 1016.2
20190323220704 43 307 7.0 17.0 0.00 0.00 0.00 35 1016.2
20190323220204 43 7 4.0 18.0 0.00 0.00 0.00 36 1016.1
20190323214704 44 353 6.0 16.0 0.00 0.00 0.00 39 1015.8
20190323214204 44 32 5.0 16.0 0.00 0.00 0.00 40 1015.7
20190323213704 44 303 4.0 14.0 0.00 0.00 0.00 39 1015.7
20190323213204 44 53 4.0 16.0 0.00 0.00 0.00 40 1015.7
20190323211704 44 262 6.0 15.0 0.00 0.00 0.00 41 1015.1
20190323211204 44 240 2.0 9.0 0.00 0.00 0.00 42 1015.0
20190323210704 44 255 3.0 12.0 0.00 0.00 0.00 40 1015.0
20190323210204 44 136 3.0 18.0 0.00 0.00 0.00 40 1014.9
20190323204704 44 121 3.0 18.0 0.00 0.00 0.00 40 1014.8
20190323204204 44 75 4.0 15.0 0.00 0.00 0.00 40 1014.7
20190323203704 45 52 3.0 12.0 0.00 0.00 0.00 42 1014.7
20190323203204 45 349 5.0 16.0 0.00 0.00 0.00 40 1014.7
20190323201704 45 133 5.0 12.0 0.00 0.00 0.00 40 1014.4
20190323201204 45 315 4.0 12.0 0.00 0.00 0.00 41 1014.5
20190323200704 45 244 6.0 14.0 0.00 0.00 0.00 41 1014.4
20190323200204 44 298 6.0 20.0 0.00 0.00 0.00 41 1014.3
20190323194704 45 28 6.0 18.0 0.00 0.00 0.00 42 1014.1
20190323194204 45 213 5.0 12.0 0.00 0.00 0.00 43 1014.2